Regional Weather Roundup
Issued by NWS Little Rock, AR

Home | Current Version | Previous Version | Text Only | Print | Product List | Glossary Off
Versions: 1 2 3 4 5 6 7 8 9 10 11 12 13 14 15 16 17 18 19 20 21 22 23 24 25 26 27 28 29 30 31 32 33 34 35 36 37 38 39 40 41 42 43 44 45 46 47 48 49 50

000
ASUS44 KLZK 111805
RWRLZK

WEATHER ROUNDUP FOR ARKANSAS
NATIONAL WEATHER SERVICE LITTLE ROCK AR
100 PM CDT FRI JUL 11 2014

NOTE: "FAIR" INDICATES FEW OR NO CLOUDS BELOW 12,000 FEET WITH NO
SIGNIFICANT WEATHER AND/OR OBSTRUCTIONS TO VISIBILITY.

ARZ001-003-010-029-111900-
NORTHWEST ARKANSAS

CITY           SKY/WX    TMP DP  RH WIND       PRES   REMARKS
FAYETTEVILLE   SUNNY     86  71  60 S13       30.16F HX  91
6HR MIN TEMP:  65; 6HR MAX TEMP:  86;

FORT SMITH     SUNNY     89  71  55 S8        30.12F HX  95
6HR MIN TEMP:  71; 6HR MAX TEMP:  89;

HARRISON       MOSUNNY   87  69  54 VRB5      30.17F HX  91
6HR MIN TEMP:  67; 6HR MAX TEMP:  88;

BENTONVILLE    MOSUNNY   84  70  61 SW12      30.17S HX  88
6HR MIN TEMP:  68; 6HR MAX TEMP:  86;

ROGERS         SUNNY     87  69  54 SW13      30.16F HX  91
6HR MIN TEMP:  69; 6HR MAX TEMP:  87;

SILOAM SPGS    SUNNY     84  68  58 S15       30.16S HX  87
6HR MIN TEMP:  66; 6HR MAX TEMP:  86;

HIGHFILL       SUNNY     86  72  62 SW10      30.15F HX  92
6HR MIN TEMP:  68; 6HR MAX TEMP:  86;

SPRINGDALE     MOSUNNY   86  70  58 SW9       30.18F HX  90
$$

ARZ004-005-016-111900-
NORTH CENTRAL ARKANSAS

CITY           SKY/WX    TMP DP  RH WIND       PRES   REMARKS
BATESVILLE     MOSUNNY   79  72  78 SE7       30.18S
6HR MIN TEMP:  72; 6HR MAX TEMP:  79; 6HR PCP:  0.01;

FLIPPIN        MOSUNNY   88  70  55 S7        30.15F HX  92
6HR MIN TEMP:  70; 6HR MAX TEMP:  88;

MTN HOME       MOSUNNY   85  73  67 S6        30.15F HX  91
6HR MIN TEMP:  70; 6HR MAX TEMP:  86; 6HR PCP: TRACE;

$$

ARZ040-041-111900-
WEST CENTRAL ARKANSAS

CITY           SKY/WX    TMP DP  RH WIND       PRES   REMARKS
MENA           SUNNY     90  64  43 W6        30.18S HX  91
MOUNT IDA      SUNNY     85  72  65 VRB3      30.16S HX  91
6HR MIN TEMP:  70; 6HR MAX TEMP:  86; 6HR PCP: TRACE;

$$

ARZ009-017-025-026-028-111900-
NORTHEAST ARKANSAS

CITY           SKY/WX    TMP DP  RH WIND       PRES   REMARKS
CORNING        LGT RAIN  86  70  58 S7        30.17F HX  90
JONESBORO      MOSUNNY   85  72  65 VRB5      30.16F HX  91
6HR MIN TEMP:  73; 6HR MAX TEMP:  85;

NEWPORT        LGT RAIN  77  74  90 SW8       30.19S
6HR MIN TEMP:  75; 6HR MAX TEMP:  79; 6HR PCP: TRACE;

WALNUT RIDGE   SUNNY     84  70  61 S8        30.16F HX  88
6HR MIN TEMP:  72; 6HR MAX TEMP:  84;

BLYTHEVILLE    MOSUNNY   87  67  51 VRB5      30.17F HX  90
6HR MIN TEMP:  73; 6HR MAX TEMP:  87;

$$

ARZ022-023-033-042-044-111900-
CENTRAL ARKANSAS

CITY           SKY/WX    TMP DP  RH WIND       PRES   REMARKS
LITTLE ROCK    PTSUNNY   85  73  67 S7        30.17S HX  91
6HR MIN TEMP:  73; 6HR MAX TEMP:  85;

N LITTLE ROCK  PTSUNNY   84  76  76 E6        30.17S HX  93
6HR MIN TEMP:  71; 6HR MAX TEMP:  85;

JACKSONVILLE   MOSUNNY   83  75  75 E7        30.17F HX  91
6HR MIN TEMP:  72; 6HR MAX TEMP:  84; 6HR PCP: TRACE;

SEARCY         MOSUNNY   83  74  74 SE9       30.19S HX  89
6HR MIN TEMP:  73; 6HR MAX TEMP:  83; 6HR PCP:  0.04;

HOT SPRINGS    MOSUNNY   83  72  69 VRB3      30.17F HX  88
6HR MIN TEMP:  72; 6HR MAX TEMP:  83; 6HR PCP: TRACE;

RUSSELLVILLE   SUNNY     86  72  62 CALM      30.15F HX  92
6HR MIN TEMP:  71; 6HR MAX TEMP:  87;

CLINTON        PTSUNNY   86  75  70 E6        30.17F HX  95
$$

ARZ036-111900-
EAST ARKANSAS

CITY           SKY/WX    TMP DP  RH WIND       PRES   REMARKS
WEST MEMPHIS   PTSUNNY   83  74  74 W5        30.17S HX  89
6HR MIN TEMP:  75; 6HR MAX TEMP:  83;

$$

ARZ050-053-066-070-073-111900-
SOUTHWEST ARKANSAS

CITY           SKY/WX    TMP DP  RH WIND       PRES   REMARKS
ARKADELPHIA    LGT RAIN  83  74  74 CALM      30.16F HX  89
6HR MIN TEMP:  72; 6HR MAX TEMP:  83; 6HR PCP: TRACE;

CAMDEN         PTSUNNY   82  73  74 NE3       30.16S HX  88
TEXARKANA      SUNNY     91  65  41 SW6       30.15F HX  93
6HR MIN TEMP:  71; 6HR MAX TEMP:  92;

EL DORADO      SUNNY     89  72  56 S5        30.16F HX  96
6HR MIN TEMP:  70; 6HR MAX TEMP:  89;

DE QUEEN       SUNNY     88  74  63 CALM      30.13F HX  96
6HR MIN TEMP:  72; 6HR MAX TEMP:  88;

$$

ARZ056-057-069-111900-
SOUTHEAST ARKANSAS

CITY           SKY/WX    TMP DP  RH WIND       PRES   REMARKS
PINE BLUFF     PTSUNNY   83  73  72 E5        30.18S HX  89
6HR MIN TEMP:  73; 6HR MAX TEMP:  83;


$$




USA.gov is the U.S. government's official web portal to all federal, state and local government web resources and services.